Content
SEND FEEDBACK

Daily
Averages
Monthly
Summary
United States of America

ABERDEEN, SOUTH DAKOTA


Home > North America > United States > South Dakota
Elevation: 1312 feet     Latitude: 45 27N     Longitude: 098 25W

WEATHER
 
SELECT A DAY
Number of Records: 214,394;   Date Range: 1/1/95 - 12/17/14
 
SHARE

PRINT THIS DATA

[ ← Previous Day ]
WEATHER ALMANAC - JANUARY 23, 2013
[ Next Day → ]
[ °C ]   °F
Weather ElementAverageHighLow
Temperature3.7 °F10.9 °F (3:53 am)-5.1 °F (11:53 pm)
Dewpoint-4.4 °F5 °F (3:53 am)-14.1 °F (8:53 pm)
Humidity69.5 %88 % (2:53 am)57 % (8:53 pm)
Barometer30.47 in30.69 in (9:53 pm)30.22 in (1:53 am)
Wind Speed13.1 mph17.3 mph (9:53 am)
Wind Gust27.6 mph (10:53 am)
Weather ElementAverage
Visibility10 mi
Wind DirectionSSW (205.2 °)

Weather ElementTotal
Precipitation---
Heating Degree Days62.1 (Base 65)
Averaged from 25 records on January 23, 2013
WEATHER CONDITIONS BREAKOUT
WIND DIRECTION BREAKOUT
WEATHER BY HOUR - JANUARY 23, 2013
[ °C ]   °F
Local TimeTemperatureDewpointHumidityBarometerVisibilityWind DirectionWind SpeedGust SpeedPrecipitationEventsConditions
1:53 AM5.0 °F1.9 °F87 %30.22 in10.0 miCalmClear
2:53 AM3.9 °F1.0 °F88 %30.23 in10.0 miWest (260°)5.8 mphClear
3:53 AM10.9 °F5.0 °F77 %30.24 in10.0 miNNW (330°)11.5 mphClear
4:53 AM10.0 °F3.9 °F76 %30.25 in10.0 miNNW (340°)11.5 mphClear
5:53 AM8.1 °F3.0 °F80 %30.28 in10.0 miNorth (350°)10.4 mphClear
6:53 AM8.1 °F1.9 °F76 %30.32 in10.0 miNNW (340°)11.5 mphClear
7:53 AM7.0 °F1.0 °F77 %30.34 in10.0 miNorth (350°)13.8 mphClear
8:53 AM7.0 °F0.0 °F73 %30.38 in10.0 miNorth (350°)13.8 mphClear
9:53 AM7.0 °F-2.0 °F67 %30.42 in10.0 miNorth (360°)17.3 mphClear
10:53 AM7.0 °F-2.0 °F67 %30.47 in10.0 miNorth (360°)16.1 mph27.6 mphClear
11:53 AM6.1 °F-2.9 °F67 %30.49 in10.0 miNorth (360°)17.3 mph26.5 mphPartly Cloudy
12:53 PM6.1 °F-2.9 °F67 %30.51 in10.0 miNorth (360°)17.3 mphScattered Clouds
1:12 PM5.0 °F-4.0 °F66 %30.42 in10.0 miNorth (10°)17.3 mphMostly Cloudy
1:27 PM5.0 °F-4.0 °F66 %30.43 in10.0 miNorth (360°)17.3 mph26.5 mphScattered Clouds
1:53 PM5.0 °F-5.1 °F63 %30.52 in10.0 miNorth (360°)16.1 mphScattered Clouds
2:53 PM3.0 °F-6.0 °F66 %30.54 in10.0 miNorth (10°)17.3 mphClear
3:53 PM3.0 °F-8.0 °F60 %30.58 in10.0 miNorth (360°)16.1 mphClear
4:53 PM1.0 °F-9.0 °F63 %30.60 in10.0 miNorth (10°)17.3 mphClear
5:53 PM0.0 °F-9.9 °F63 %30.63 in10.0 miNorth (10°)16.1 mph21.9 mphClear
6:53 PM-0.9 °F-9.9 °F66 %30.62 in10.0 miNNE (20°)12.7 mphClear
7:53 PM-0.9 °F-11.0 °F62 %30.66 in10.0 miNNE (30°)9.2 mphClear
8:53 PM-2.0 °F-14.1 °F57 %30.65 in10.0 miNNE (30°)11.5 mphClear
9:53 PM-2.9 °F-13.0 °F62 %30.69 in10.0 miNNE (20°)8.1 mphClear
10:53 PM-4.0 °F-11.0 °F72 %30.69 in10.0 miENE (70°)10.4 mphScattered Clouds
11:53 PM-5.1 °F-13.0 °F69 %30.67 in10.0 miEast (80°)11.5 mphClear
Hourly data recorded from KABR, located miles away from Aberdeen, South Dakota







STORIES FROM OUR PARTNERS